Find STARLINK-37592

NORAD ID: 70613 Constellation: starlink operational
LEOCIRCULARRETROGRADE

Live Position

Loading 3D Globe...

About STARLINK-37592

Description loading...

Upcoming Passes

Passes for default location (London). Set your location on the main map for personalized predictions.

Altitude History

Loading altitude history...

Two-Line Element Set

1 70613C 26101A 26126.30881944 .00404400 00000+0 63649-3 0 1265
2 70613 97.2851 339.8491 0009822 260.9214 329.0178 16.03611331 19
Epoch: May 6, 2026 • Age: 20 hours